Flag for Finland Weather past 2 weeks in Helsinki, Finland

Now
34 °F

Passing clouds.


Feels Like: 25 °F
Forecast: 37 / 42 °F
Wind: 12 mph from Southeast

Location: Helsinki Malmi Airport

Current Time: Oct 24, 2014 at 2:38:18 PM

Latest Report: Oct 24, 2014 at 1:50 PM


Visibility: N/A

Pressure: 30.51 "Hg

Humidity: 48%

Dew point: 16 °F

Location of HelsinkiLocation

Historic Weather in Helsinki — Graph

°F

Helsinki temperature yesterday

Maximum temperature yesterday: 32 °F (at 2:20 PM)
Minimum temperature yesterday: 25 °F (at 12:20 AM)
Average temperature yesterday: 28 °F

Past Weeks' High & Low Weather Summary

 TemperatureHumidityPressure
High55 °F (Oct 10, 5:20 AM)100% (Oct 10, 1:20 AM)30.57 "Hg (Oct 10, 1:20 AM)
Low19 °F (Oct 18, 7:50 AM)48% (Oct 17, 2:50 PM)29.30 "Hg (Oct 20, 7:50 AM)
Average40 °F84%29.97 "Hg
* Reported Oct 9 1:20 PM — Oct 24 1:20 PM, Helsinki, Weather by CustomWeather, © 2014

Note: Actual official high and low records may vary slightly from our data, if they occured in-between our weather recording intervals... More about our weather records

Advertising

Helsinki weather history for previous 24 hours

 ConditionsComfort  
Time TempWeatherWind HumidityBarometerVisibility
1:20 PM
Oct 24
34 °FPassing clouds.10 mph51%30.51 "HgN/A
12:50 PM32 °FPassing clouds.13 mph55%30.51 "HgN/A
12:20 PM32 °FPassing clouds.12 mph60%30.54 "HgN/A
11:50 AM32 °FPassing clouds.13 mph64%30.54 "HgN/A
11:20 AM30 °FPassing clouds.12 mph64%30.54 "HgN/A
10:50 AM30 °FPassing clouds.10 mph69%30.54 "HgN/A
10:20 AM30 °FPartly sunny.9 mph69%30.54 "HgN/A
9:50 AM30 °FPartly sunny.10 mph69%30.54 "HgN/A
9:20 AM30 °FPassing clouds.8 mph75%30.54 "HgN/A
8:50 AM30 °FPassing clouds.8 mph75%30.54 "HgN/A
8:20 AM30 °FPassing clouds.9 mph75%30.54 "HgN/A
7:50 AM30 °FPassing clouds.10 mph69%30.54 "HgN/A
7:20 AM28 °FPassing clouds.9 mph74%30.54 "HgN/A
6:50 AM28 °FPassing clouds.12 mph74%30.54 "HgN/A
6:20 AM28 °FPassing clouds.12 mph74%30.54 "HgN/A
5:50 AM28 °FPartly cloudy.10 mph74%30.54 "HgN/A
5:20 AM28 °FPartly cloudy.12 mph74%30.54 "HgN/A
4:50 AM28 °FPassing clouds.14 mph74%30.54 "HgN/A
4:20 AM30 °FPassing clouds.13 mph69%30.57 "HgN/A
3:50 AM30 °FPassing clouds.13 mph69%30.57 "HgN/A
3:20 AM30 °FPassing clouds.14 mph69%30.57 "HgN/A
2:50 AM30 °FPassing clouds.14 mph69%30.57 "HgN/A
2:20 AM30 °FPassing clouds.13 mph69%30.57 "HgN/A
1:50 AM28 °FPassing clouds.16 mph74%30.57 "HgN/A
1:20 AM30 °FPassing clouds.13 mph69%30.57 "HgN/A
12:50 AM30 °FPassing clouds.12 mph69%30.57 "HgN/A
12:20 AM30 °FPassing clouds.15 mph64%30.57 "HgN/A
11:50 PM
Oct 23
30 °FPassing clouds.14 mph64%30.57 "HgN/A
11:20 PM30 °FPassing clouds.14 mph64%30.57 "HgN/A
10:50 PM30 °FPassing clouds.13 mph64%30.57 "HgN/A
10:20 PM28 °FPassing clouds.12 mph69%30.57 "HgN/A
9:50 PM30 °FPassing clouds.12 mph59%30.57 "HgN/A
9:20 PM30 °FPassing clouds.13 mph59%30.57 "HgN/A
8:50 PM30 °FPassing clouds.10 mph59%30.54 "HgN/A
8:20 PM30 °FPassing clouds.9 mph59%30.54 "HgN/A
7:50 PM30 °FPassing clouds.8 mph64%30.54 "HgN/A
7:20 PM30 °FPassing clouds.9 mph64%30.54 "HgN/A
6:50 PM30 °FPassing clouds.10 mph69%30.54 "HgN/A
6:20 PM32 °FPartly sunny.10 mph64%30.54 "HgN/A
5:50 PM30 °FPartly sunny.12 mph69%30.54 "HgN/A
5:20 PM30 °FPartly sunny.10 mph64%30.54 "HgN/A
4:50 PM32 °FPartly sunny.13 mph60%30.54 "HgN/A
4:20 PM32 °FPartly sunny.10 mph64%30.54 "HgN/A
3:50 PM32 °FPartly sunny.9 mph64%30.57 "HgN/A
3:20 PM32 °FPartly sunny.10 mph64%30.57 "HgN/A
2:50 PM32 °FPartly sunny.10 mph69%30.57 "HgN/A
2:20 PM32 °FPartly sunny.9 mph69%30.54 "HgN/A
Weather by CustomWeather, © 2014

See weather overviewHow to use our weather pages